Terminal Aerodrome Forecast
Issued by NWS Pittsburgh, PA

Current Version | Previous Version | Graphics & Text | Print | Product List | Glossary On
Versions: 1 2 3 4 5 6 7 8 9 10 11 12 13 14 15 16 17 18 19 20 21 22 23 24
503
FTUS41 KPBZ 290300 AAA
TAFPIT
TAF AMD
KPIT 290300Z 2903/3006 22003KT P6SM SCT070
     FM291800 21004KT P6SM VCTS BKN050CB
     FM300000 18004KT P6SM SCT080=

USA.gov is the U.S. government's official web portal to all federal, state and local government web resources and services.